Flag for Germany Weather past 2 weeks in Plettenberg, North Rhine-Westphalia, Germany

Now
54 °F

Light rain. Partly cloudy.


Feels Like: 52 °F
Forecast: 49 / 59 °F
Wind: 7 mph from South

Location: Dortmund / Wickede

Current Time: Oct 25, 2014 at 9:54:52 PM

Latest Report: Oct 25, 2014 at 9:20 PM


Visibility: 5 mi

Pressure: 30.15 "Hg

Humidity: 94%

Dew point: 52 °F

Location of PlettenbergLocation

Historic Weather in Plettenberg — Graph

°F

Plettenberg temperature yesterday

Maximum temperature yesterday: 55 °F (at 4:20 PM)
Minimum temperature yesterday: 52 °F (at 5:20 AM)
Average temperature yesterday: 53 °F

Past Weeks' High & Low Weather Summary

 TemperatureHumidityPressure
High73 °F (Oct 19, 2:20 PM)94% (Oct 11, 7:50 AM)30.21 "Hg (Oct 11, 7:50 AM)
Low45 °F (Oct 22, 5:20 AM)49% (Oct 14, 4:20 PM)29.47 "Hg (Oct 21, 4:20 PM)
Average56 °F76%29.92 "Hg
* Reported Oct 10 8:20 PM — Oct 25 8:20 PM, Plettenberg, Weather by CustomWeather, © 2014

Note: Actual official high and low records may vary slightly from our data, if they occured in-between our weather recording intervals... More about our weather records

Advertising

Plettenberg weather history for previous 24 hours

 ConditionsComfort  
Time TempWeatherWind HumidityBarometerVisibility
8:20 PM
Oct 25
54 °FLight rain. Partly cloudy.7 mph94%30.15 "Hg4 mi
7:50 PM54 °FSprinkles. Passing clouds.7 mph88%30.15 "Hg3 mi
7:20 PM54 °FPassing clouds.7 mph88%30.12 "Hg6 mi
6:50 PM54 °FBroken clouds.6 mph88%30.12 "Hg6 mi
6:20 PM54 °FPartly sunny.5 mph88%30.12 "HgN/A
5:50 PM55 °FPartly sunny.7 mph82%30.12 "Hg5 mi
5:20 PM55 °FPartly sunny.8 mph82%30.12 "HgN/A
4:50 PM55 °FPartly sunny.9 mph82%30.12 "HgN/A
4:20 PM55 °FSunny.10 mph82%30.12 "Hg10 mi
3:50 PM55 °FPartly sunny.12 mph82%30.12 "HgN/A
3:20 PM55 °FPartly sunny.8 mph82%30.09 "HgN/A
2:50 PM55 °FPartly sunny.9 mph82%30.09 "HgN/A
2:20 PM55 °FPartly sunny.9 mph82%30.09 "HgN/A
1:50 PM55 °FPartly sunny.9 mph82%30.09 "HgN/A
1:20 PM55 °FPartly sunny.9 mph82%30.09 "HgN/A
12:50 PM55 °FPartly sunny.7 mph82%30.09 "HgN/A
12:20 PM54 °FOvercast.7 mph88%30.09 "HgN/A
11:50 AM54 °FOvercast.7 mph82%30.09 "HgN/A
11:20 AM54 °FPartly sunny.8 mph82%30.09 "HgN/A
10:50 AM52 °FPartly sunny.8 mph88%30.09 "HgN/A
10:20 AM52 °FPartly sunny.10 mph88%30.07 "HgN/A
9:50 AM52 °FDrizzle. Partly sunny.10 mph88%30.07 "HgN/A
9:20 AM52 °FDrizzle. Partly sunny.9 mph82%30.07 "HgN/A
8:50 AM52 °FPassing clouds.12 mph82%30.07 "HgN/A
8:20 AM52 °FPassing clouds.3 mph82%30.04 "HgN/A
7:50 AM50 °FPassing clouds.12 mph88%30.04 "HgN/A
7:20 AM50 °FPassing clouds.12 mph88%30.04 "HgN/A
6:50 AM50 °FPassing clouds.10 mph88%30.04 "HgN/A
6:20 AM50 °FPassing clouds.10 mph82%30.04 "HgN/A
5:50 AM50 °FPassing clouds.12 mph82%30.04 "HgN/A
5:20 AM52 °FOvercast.10 mph77%30.04 "HgN/A
10:50 PM
Oct 24
52 °FClear.10 mph72%30.07 "Hg10 mi
10:20 PM52 °FClear.10 mph72%30.07 "Hg10 mi
9:50 PM52 °FPassing clouds.12 mph72%30.07 "HgN/A
9:20 PM52 °FClear.9 mph72%30.07 "Hg10 mi
Weather by CustomWeather, © 2014

See weather overviewHow to use our weather pages